Tracking 35048 objects as of 19-Aug-2026
HD Live streaming from Space Station
objects crossing your sky now

SALYUT 7 DEB


SALYUT 7 DEB is no longer on orbit


NORAD ID: 16164
Int'l Code: 1982-033FQ
Launch date: April 19, 1982
Source: Commonwealth of Independent States (former USSR) (CIS)
Launch site: TYURATAM MISSILE AND SPACE COMPLEX (TTMTR)
Decay date: 1986-02-17

Note: This is SATELLITE DEBRIS
Your satellite tracking list
Your tracking list is empty




NASA's NSSDC Master Catalog

Two Line Element Set (TLE):
1 16164U 82033FQ  86048.39747747  .06170712 +55868-4 +47041-3 0  9997
2 16164 051.5977 122.3097 0003784 339.5166 032.6693 16.39599582221004
Source of the keplerian elements: AFSPC